Wind_Gust
26 26 25 25 24 23 23 21 20 20 20 19 19 19 19 20 20 20 20 19 21 20 20 21 21 21 21 21 21 19 19 18 17 17 17 17 18 18 18 19 20 19 19 18 17 16 17 18 17 15 14 14 14 14 14 14 13 12 12 12 12 11 13 15 18 22 21 18 21 24 24 23 27 25 28 28 29 30 26 29 31 31 35 39 43
25 26 25 27 25 22 21 21 22 21 21 19 19 20 21 20 20 20 19 20 21 21 22 21 21 22 21 21 21 20 19 19 17 17 19 19 18 17 18 19 19 19 17 18 16 16 15 17 17 15 14 15 14 16 15 15 15 16 14 14 13 14 12 15 17 19 24 23 21 21 24 24 27 25 28 30 30 30 33 32 31 31 36 40 43
26 27 28 29 26 23 21 23 24 22 21 19 19 21 21 20 21 21 21 21 21 21 21 21 22 22 21 21 21 20 19 19 17 18 19 19 19 18 18 18 18 18 17 17 17 16 16 16 15 13 12 14 13 14 14 14 15 15 15 14 14 14 14 13 16 19 21 24 22 24 24 25 25 29 27 27 29 31 32 32 32 34 37 38 42
28 27 28 28 25 22 21 22 24 22 20 20 21 21 22 21 21 21 21 21 22 20 21 22 21 21 21 21 21 20 20 18 19 19 20 19 19 20 19 18 17 17 17 17 16 15 15 14 14 13 12 14 14 15 16 16 15 15 15 14 14 15 14 13 14 18 20 24 24 26 25 26 28 26 27 27 31 31 31 31 31 35 37 40 39
27 28 27 26 22 21 20 22 23 21 20 20 21 21 22 22 21 22 22 21 21 21 22 21 21 22 22 22 21 21 20 20 20 19 18 18 18 18 18 18 17 17 16 16 12 15 15 14 13 13 14 14 14 16 16 16 16 15 16 17 16 16 15 15 16 17 20 22 24 23 23 24 27 27 27 33 31 29 27 30 34 35 35 39 38
27 26 26 24 23 21 22 21 22 22 21 21 22 22 22 21 22 21 22 22 21 21 22 22 21 22 21 21 21 21 20 20 20 20 19 18 18 17 17 17 17 17 16 15 15 14 13 14 13 13 14 15 15 15 16 16 16 16 16 17 17 17 16 16 16 17 19 21 23 26 22 28 27 27 28 30 33 34 31 31 33 32 36 38 38
28 25 23 21 24 23 22 22 23 22 21 22 22 22 22 21 22 23 22 22 23 22 22 21 21 21 22 21 21 21 21 20 20 19 19 19 19 19 18 17 16 16 15 15 14 14 13 14 13 13 15 15 15 15 16 15 15 16 16 16 17 17 17 18 19 18 19 21 22 22 25 23 26 31 30 27 28 31 34 40 37 35 38 38 39
26 25 24 23 23 24 23 22 22 22 22 22 22 22 22 22 22 22 22 22 23 22 23 22 21 21 21 21 21 20 20 19 19 20 19 19 18 18 18 17 16 16 15 15 14 13 13 13 14 14 15 15 15 15 15 16 16 16 17 17 17 17 18 18 19 20 20 21 23 26 24 27 27 26 28 27 30 29 30 36 42 42 41 39 36
27 28 25 23 23 24 23 22 21 22 23 23 23 22 22 22 22 22 21 22 21 22 22 22 21 21 21 21 21 20 20 19 19 19 19 19 19 18 18 17 17 16 15 15 14 13 14 14 13 14 14 10 9 9 8 8 15 17 17 17 18 17 17 18 19 20 21 21 23 24 25 27 29 31 32 32 34 36 37 35 37 36 39 41 38
27 25 26 24 23 23 23 21 23 23 24 24 23 23 23 22 22 22 22 22 21 21 21 21 22 21 22 22 21 20 19 18 12 10 9 18 18 18 17 17 16 15 15 15 13 13 13 14 14 11 9 8 8 7 5 6 7 11 14 15 15 16 17 18 19 21 21 23 24 26 27 28 32 30 30 30 30 31 34 37 38 38 36 35 36
24 26 26 24 23 23 23 23 23 24 23 23 22 23 23 22 22 22 21 21 20 20 21 22 21 21 22 22 21 20 19 16 12 9 7 7 15 17 17 16 15 15 15 14 14 13 12 13 14 13 14 12 15 8 5 7 8 8 8 9 8 13 15 17 19 19 22 23 24 25 26 27 28 28 28 32 31 32 33 37 38 38 40 42 46
25 26 26 25 24 24 23 24 24 24 23 24 24 23 22 22 23 22 21 20 20 19 20 21 21 21 21 21 21 20 18 13 14 10 10 10 8 16 16 16 15 15 14 14 13 13 12 12 11 11 11 13 12 15 12 8 8 10 11 12 11 9 6 11 15 19 20 22 24 24 25 26 29 28 31 31 33 32 31 32 36 38 39 41 43
24 25 25 26 26 24 23 23 23 23 24 24 25 23 23 23 23 21 21 19 19 20 21 21 21 21 21 22 21 21 17 16 14 12 11 11 9 11 17 15 15 14 13 13 12 11 11 12 12 10 11 10 11 14 14 15 11 10 12 13 16 14 12 11 10 12 18 20 21 23 25 26 27 28 29 32 31 31 32 32 35 36 36 37 40
23 24 25 25 25 23 23 22 22 21 21 21 22 22 23 23 20 19 19 19 20 20 20 20 20 21 21 21 21 20 18 17 15 13 12 11 11 11 14 15 14 14 14 13 12 12 10 10 12 11 10 10 13 13 14 15 16 16 17 18 18 17 13 12 11 13 12 17 19 22 23 23 26 26 26 26 30 33 35 33 34 36 38 39 37
23 23 24 24 23 22 21 20 22 22 22 21 21 21 22 20 20 19 19 19 20 21 21 21 20 20 21 21 20 20 17 18 14 14 12 11 11 11 14 15 14 14 14 13 12 11 10 9 8 10 10 11 13 12 14 15 15 16 17 17 17 17 17 19 19 19 18 17 18 20 22 22 22 24 25 25 25 27 29 31 32 32 35 32 31
24 24 25 25 25 25 24 22 19 20 21 20 20 20 20 19 19 17 16 17 16 17 17 18 20 21 21 21 20 20 18 19 14 14 12 12 11 17 16 15 14 15 15 14 14 13 12 11 11 10 10 12 9 7 8 16 14 17 18 18 18 16 17 11 9 10 14 17 18 20 21 23 19 25 26 26 26 27 27 27 26 30 35 35 37
23 24 25 27 27 28 27 27 27 27 22 23 22 21 18 17 15 16 16 16 16 17 18 18 19 20 21 21 21 20 19 16 14 14 13 14 12 20 16 17 16 15 15 15 15 12 12 12 10 11 10 13 9 7 7 11 15 16 17 18 18 18 21 19 15 13 14 15 15 16 17 19 20 21 21 22 22 23 27 28 31 35 36 37 38
23 23 22 24 26 26 26 26 27 26 23 23 21 19 19 17 17 15 17 18 18 18 18 18 18 19 20 21 22 20 20 17 14 13 13 15 15 19 17 17 16 16 16 15 14 14 12 8 7 10 9 13 8 5 7 13 14 15 16 17 18 20 22 23 22 21 14 14 15 15 16 17 19 20 16 17 18 16 26 29 30 34 35 35 39
24 24 24 26 26 25 26 25 25 25 25 25 24 21 19 20 18 16 14 15 16 17 18 19 19 18 20 20 12 18 19 17 13 14 13 15 17 18 17 17 17 17 17 17 14 14 16 12 7 9 9 12 7 3 5 11 13 14 15 15 18 18 19 21 21 23 23 23 22 23 22 18 22 23 22 17 17 15 24 24 27 30 34 35 36
26 24 25 26 25 24 24 25 23 25 23 22 21 20 20 17 16 14 13 15 17 17 18 18 19 19 19 19 19 20 19 20 18 13 13 13 14 18 18 17 18 18 17 18 17 14 15 16 13 6 4 5 3 4 4 4 12 13 14 15 17 19 20 20 19 21 22 21 22 22 22 22 22 22 23 24 25 24 24 24 25 28 30 32 34
26 26 26 25 24 24 21 19 22 21 22 23 21 21 22 20 18 18 16 14 15 16 18 17 19 18 18 19 20 20 19 20 19 15 12 12 13 12 18 17 17 18 18 17 17 16 17 16 16 12 8 5 4 5 5 4 5 14 12 14 15 15 15 20 21 12 20 19 19 20 21 21 22 24 25 26 27 27 26 23 25 26 27 29 33
25 25 25 24 22 22 24 20 19 23 22 22 22 21 18 20 21 21 20 19 17 17 16 17 19 19 19 18 18 19 14 11 19 14 12 12 12 12 17 17 15 18 17 17 16 16 15 15 15 15 10 8 5 5 6 6 6 15 11 5 7 8 16 19 20 19 19 19 20 20 22 22 24 25 26 27 27 27 27 27 27 26 25 24 27
27 27 23 23 21 20 19 21 21 19 21 23 23 22 21 21 20 21 20 18 19 19 19 20 19 19 18 18 18 18 17 16 10 17 12 11 12 12 13 14 8 14 16 17 15 15 13 12 15 14 10 8 6 6 7 7 10 11 4 7 8 10 13 18 17 18 19 20 21 21 21 23 24 24 25 26 26 25 26 27 28 28 26 25 23
25 25 24 23 21 19 19 20 20 18 21 23 22 23 22 21 21 21 21 20 19 19 21 22 23 21 20 20 19 18 18 18 11 9 14 12 11 10 10 7 9 14 15 16 15 13 15 13 12 11 6 6 6 7 8 7 13 7 8 8 10 10 18 17 16 18 18 20 22 23 22 22 22 23 24 24 26 25 26 25 27 27 29 28 26
26 25 25 24 22 19 18 19 19 19 20 21 21 22 21 20 22 20 20 20 21 22 22 24 24 22 20 20 20 19 19 18 19 15 10 11 10 9 8 9 7 6 14 13 11 12 11 11 10 6 5 6 7 9 9 12 15 12 11 11 11 17 14 16 17 18 19 21 22 22 23 23 22 22 22 23 23 22 24 24 24 25 27 27 26
25 27 27 24 23 23 23 21 17 17 19 20 22 23 22 22 22 21 21 21 22 22 21 22 22 20 20 20 20 20 20 18 19 18 12 10 8 9 10 10 9 9 11 13 9 8 6 5 6 7 9 10 15 16 17 11 10 12 13 12 17 13 13 15 16 17 18 20 20 22 23 23 23 23 21 21 23 25 26 27 26 27 28 28 29
22 24 26 25 25 26 27 26 24 20 20 22 21 21 21 21 21 21 22 23 21 20 21 21 21 22 20 20 19 19 19 19 19 19 21 20 19 16 15 14 6 6 12 13 8 12 12 11 8 4 6 4 8 7 8 9 16 18 21 20 15 12 12 12 15 16 16 18 19 20 21 22 22 22 23 23 24 25 24 26 27 27 27 28 28
23 22 24 23 25 27 26 17 23 23 22 22 22 22 23 24 25 25 26 25 24 23 24 23 24 24 22 20 20 19 20 20 20 20 21 20 20 20 20 18 18 19 19 17 17 15 15 7 8 14 15 17 17 18 19 18 17 13 12 12 12 12 10 9 11 16 14 16 18 19 21 22 24 24 24 24 24 25 24 26 26 28 27 27 30
19 19 19 18 20 22 25 24 27 25 22 22 22 23 24 26 26 24 23 25 25 25 23 21 20 19 20 21 22 21 20 22 21 11 18 11 17 21 22 21 21 21 10 5 13 12 13 15 17 17 18 17 18 18 17 15 13 12 12 12 13 13 13 14 15 15 15 16 18 19 20 22 23 23 24 25 24 24 24 26 25 27 27 26 28
21 21 21 21 20 21 23 24 27 29 24 23 23 21 11 13 19 25 24 16 17 18 17 24 22 20 21 19 19 20 20 16 12 15 14 14 12 12 10 9 10 9 10 6 6 13 15 16 16 15 17 18 16 15 13 13 13 15 15 6 13 13 14 14 14 15 15 16 17 18 19 18 21 23 23 24 25 24 24 20 26 26 27 26 28
21 22 24 25 25 23 21 24 29 28 25 22 22 22 21 16 9 7 7 13 14 12 13 10 9 10 18 22 15 14 13 14 18 15 15 16 16 15 13 10 9 10 12 13 9 13 13 13 13 13 14 17 13 12 11 11 11 12 15 16 14 12 9 13 13 13 12 13 13 17 17 18 19 20 22 21 23 24 24 23 25 27 27 27 26
25 24 25 21 22 22 20 21 28 28 28 25 22 22 23 24 16 9 9 11 11 11 13 13 13 13 12 12 11 18 11 10 14 17 17 17 17 17 13 11 11 12 12 8 13 16 16 16 15 15 16 13 12 14 12 13 13 14 12 13 13 11 12 12 11 16 14 15 13 13 14 16 19 18 20 21 20 22 23 23 24 24 25 26 26
24 22 22 22 21 20 19 20 22 26 27 27 23 22 23 21 22 20 12 8 8 13 12 14 15 16 15 14 12 10 10 13 16 12 13 13 14 14 12 11 12 11 10 10 16 17 17 19 20 19 17 15 18 18 17 16 16 14 15 13 14 14 16 13 10 15 12 14 13 13 13 14 15 17 14 16 18 19 19 20 23 24 24 24 25
23 23 24 24 26 23 22 23 23 27 27 26 25 25 23 22 23 22 22 18 13 7 8 13 15 15 15 16 15 13 10 12 13 12 12 13 13 11 10 12 8 12 10 18 18 18 21 21 20 19 19 18 18 17 16 17 16 16 15 15 16 16 15 13 15 13 11 12 12 11 12 14 16 15 16 16 17 18 18 17 20 21 22 24 25
22 15 16 17 23 23 22 23 21 22 24 24 22 21 21 21 21 22 23 23 23 22 19 18 14 14 18 14 14 14 12 10 10 12 13 12 11 14 13 16 13 14 17 19 20 21 21 21 21 20 19 19 19 18 17 17 16 15 15 16 16 16 17 16 14 15 14 15 13 13 13 13 17 13 15 16 17 18 18 18 19 21 23 20 22
20 21 21 22 20 20 20 20 18 18 19 21 20 19 19 19 20 20 18 18 18 19 17 19 20 14 19 13 12 12 12 10 10 11 10 13 16 18 18 17 16 20 20 21 22 22 21 21 21 20 20 20 19 18 18 17 16 16 16 16 13 17 17 14 15 14 11 15 13 12 13 14 15 13 14 16 18 15 15 16 17 16 17 19 19
17 17 21 23 22 21 22 22 19 19 13 15 15 16 19 19 19 20 21 21 21 20 21 20 18 15 13 15 14 12 12 11 12 11 12 15 19 20 19 19 20 20 20 21 21 22 23 23 22 22 21 19 19 18 17 16 16 17 12 17 18 18 16 15 14 11 14 15 15 14 15 15 14 13 14 15 16 15 15 15 16 15 15 15 14
20 18 18 19 19 20 21 25 24 13 17 18 17 18 19 20 20 20 20 21 22 21 21 22 16 21 23 22 17 16 15 9 12 9 9 11 16 17 20 20 20 22 21 22 22 21 22 22 21 21 21 20 19 17 17 16 16 16 16 17 16 15 9 13 9 17 12 15 15 15 14 13 13 13 12 14 15 16 16 13 15 18 17 15 16
20 16 16 17 15 21 21 21 20 19 17 17 18 19 19 20 21 22 23 22 21 21 19 18 20 20 20 19 18 14 16 17 16 15 14 15 18 20 21 21 22 23 23 22 20 21 21 21 20 20 19 18 17 17 17 17 16 16 16 12 13 14 14 16 15 14 14 14 14 14 15 15 15 15 14 15 14 13 15 13 13 13 16 17 18
21 21 17 18 17 18 18 17 19 19 19 20 21 19 18 18 21 21 21 21 21 20 20 20 21 22 20 21 21 23 23 21 20 19 16 16 17 21 21 22 22 23 23 22 21 20 19 20 19 18 18 18 18 19 18 18 16 13 13 13 14 15 15 15 16 15 14 13 15 16 17 15 15 14 14 14 14 14 14 15 14 13 13 13 15
19 19 16 17 16 20 16 19 20 21 20 20 18 20 21 20 18 19 22 21 20 20 22 22 22 22 22 20 17 19 22 21 20 19 18 19 19 20 21 21 21 22 22 21 20 19 19 19 18 18 19 19 18 19 19 18 15 14 13 13 14 14 15 13 14 15 15 15 16 16 16 15 13 14 14 13 9 13 15 15 14 14 13 13 13
18 18 22 22 20 20 20 21 20 19 17 17 20 21 19 19 20 22 21 21 21 22 21 22 22 21 17 19 22 23 21 18 17 17 17 17 18 19 20 20 21 22 22 21 20 19 19 19 18 18 16 15 15 16 14 16 14 13 13 13 14 14 15 16 15 14 14 16 15 15 14 13 13 14 15 9 14 14 14 14 14 14 15 15 14
19 20 21 19 22 21 21 21 20 21 21 22 21 14 15 19 19 18 18 19 21 22 21 21 20 20 18 17 22 22 19 19 12 18 18 17 18 18 20 19 19 20 21 20 21 20 19 18 16 17 15 17 17 14 14 15 14 13 13 12 13 14 14 15 15 15 16 16 16 12 11 12 13 14 12 11 12 13 13 13 13 14 13 14 14
19 19 19 19 19 17 17 19 21 21 21 18 17 17 17 18 19 19 21 20 20 20 21 20 19 18 14 15 16 17 17 17 15 16 16 15 15 15 20 20 19 20 19 21 21 20 19 16 15 17 16 17 17 16 17 15 14 13 13 14 13 13 14 15 16 16 17 18 17 15 13 12 13 14 13 12 12 12 13 12 13 13 14 14 14
18 20 20 20 19 18 19 18 20 20 18 16 17 15 15 18 18 20 21 21 20 19 19 17 14 14 15 15 17 18 18 18 16 15 16 18 19 19 19 19 19 21 21 16 18 17 17 14 13 12 12 16 17 16 17 17 17 17 14 14 14 16 16 15 15 16 16 13 16 14 13 13 13 14 15 14 11 11 14 12 13 10 13 13 14
20 20 20 20 20 19 19 20 18 19 20 21 22 22 20 20 19 18 18 18 17 18 17 16 16 16 17 18 18 18 20 20 19 18 17 17 18 19 18 18 18 19 18 16 16 16 14 14 12 12 13 14 17 17 18 17 18 18 19 18 18 18 19 20 17 14 13 10 12 12 13 13 14 14 12 14 14 14 13 12 11 13 14 14 14
19 19 19 19 20 19 18 18 19 19 20 20 20 24 23 22 18 15 15 17 18 17 18 17 17 18 18 18 18 18 18 19 19 18 19 19 19 19 19 19 17 18 17 19 16 14 12 12 13 12 13 13 15 18 19 20 20 19 19 20 20 19 20 16 14 11 10 9 10 12 13 13 14 15 14 15 15 14 12 14 14 12 14 15 15
18 19 19 17 18 18 18 18 19 13 17 18 17 19 18 16 16 16 16 16 17 16 16 16 17 17 16 18 18 18 18 19 20 19 18 18 19 20 20 18 14 15 14 13 12 12 13 13 13 13 14 13 13 18 19 19 19 19 19 19 20 20 15 10 12 13 10 10 10 10 11 14 14 14 14 12 12 14 13 15 14 15 13 15 14
18 20 20 20 19 19 18 18 18 20 20 18 18 18 15 17 17 17 17 17 17 17 17 16 16 15 16 17 17 17 17 16 17 17 18 18 17 17 17 16 13 14 13 13 13 12 14 15 13 14 14 14 14 17 18 18 18 18 16 17 11 10 5 4 9 15 10 11 12 13 12 14 13 13 14 13 15 15 16 14 14 15 15 14 16
17 16 17 19 19 19 17 17 17 17 16 15 16 16 16 15 16 16 16 15 14 15 16 15 15 16 17 16 16 17 16 16 17 17 17 17 17 16 16 16 14 12 13 13 13 12 12 12 12 13 12 12 11 14 15 15 16 15 16 14 9 6 4 5 9 9 13 13 12 13 13 13 13 14 14 14 13 13 15 16 15 14 15 15 15
15 16 16 18 17 16 16 19 20 20 19 15 14 15 15 16 16 15 16 16 17 17 16 16 16 16 16 17 15 16 17 16 16 17 17 17 17 16 15 12 12 11 12 13 12 12 12 12 12 10 10 10 12 12 15 16 14 13 10 7 9 8 8 8 11 9 11 10 12 12 14 13 12 14 14 14 13 14 14 14 13 14 16 16 15
Wind_Speed
14 13 12 13 14 13 13 11 11 10 11 11 10 10 10 10 10 10 10 9 10 10 10 10 10 9 10 9 9 8 8 8 7 7 7 7 7 8 8 8 8 8 8 8 7 7 7 8 8 7 6 5 5 4 4 4 3 3 4 3 3 3 4 5 7 9 8 7 8 10 11 11 12 12 14 14 14 15 16 15 16 14 14 16 17
14 14 13 13 15 12 12 11 11 11 12 11 10 11 10 10 10 10 10 10 10 10 11 10 10 10 10 10 9 9 9 9 8 7 8 8 8 6 7 8 8 8 7 8 7 6 6 7 7 6 5 6 5 6 5 5 4 5 4 4 4 4 4 5 6 7 10 9 8 9 10 11 12 12 14 15 16 16 18 15 13 14 13 15 15
14 14 14 15 16 13 12 12 13 13 12 10 11 11 11 11 10 11 10 10 10 10 10 10 10 10 10 9 9 9 9 9 7 8 8 9 8 8 8 8 8 8 8 8 7 7 7 6 6 5 4 5 4 5 5 4 4 5 5 4 3 4 4 4 6 8 10 10 9 10 10 11 11 13 14 13 14 15 17 16 15 14 14 14 15
15 15 15 16 15 13 11 12 14 13 12 10 12 12 11 10 11 11 11 10 10 10 11 11 11 10 10 10 10 9 9 8 9 9 9 9 9 9 8 8 8 8 8 7 7 6 6 6 5 5 4 5 5 4 5 5 4 5 5 4 4 5 5 5 5 7 8 10 10 10 10 11 11 12 12 13 14 15 14 15 15 14 15 16 17
14 15 15 15 13 12 12 12 13 12 12 11 13 12 12 11 10 11 11 11 10 10 10 10 10 10 10 11 10 10 10 10 10 9 8 8 9 8 9 8 8 8 7 7 6 6 6 6 5 5 5 5 5 5 5 6 5 5 6 5 5 5 5 5 6 7 8 9 10 9 10 10 11 12 13 15 14 14 14 15 16 15 14 15 15
15 15 14 14 12 12 13 12 12 13 12 12 13 12 12 11 11 10 11 11 11 11 11 10 10 11 10 11 10 10 10 10 10 9 9 9 8 8 8 8 8 8 7 7 6 5 5 5 5 5 5 5 5 5 5 6 5 5 6 6 6 6 6 6 6 7 8 9 9 10 10 11 11 11 14 14 15 15 14 14 15 14 14 14 16
15 14 13 12 13 13 12 11 11 12 12 12 11 11 11 11 12 11 11 11 12 11 11 11 10 10 11 10 10 10 10 10 9 9 9 9 9 9 8 8 8 7 7 7 6 6 5 5 5 5 6 6 5 6 6 5 4 5 6 6 7 7 7 7 7 8 8 9 9 9 10 10 11 13 13 14 14 14 16 16 14 14 15 15 18
14 13 13 12 12 13 12 12 12 11 11 11 12 12 11 11 11 11 11 11 12 12 12 11 10 10 10 10 10 10 9 9 9 9 9 9 9 9 8 8 7 7 7 6 6 5 5 5 6 6 6 6 6 6 6 5 5 5 5 6 6 7 7 7 7 8 8 8 9 10 10 11 11 11 12 13 14 13 13 14 16 16 16 15 16
14 15 14 13 12 11 11 11 11 11 11 12 12 11 11 11 11 11 11 11 9 11 11 11 11 11 11 10 11 10 9 8 8 9 9 9 9 8 8 8 8 7 7 6 6 5 6 5 5 6 6 6 5 4 4 4 5 5 5 6 6 6 6 7 7 8 8 8 9 9 10 10 11 13 14 14 15 16 16 15 14 14 15 16 15
15 14 14 13 11 11 12 10 11 11 12 12 12 11 11 11 11 11 11 11 10 10 11 11 11 10 11 11 10 9 8 7 7 8 8 8 9 8 7 8 7 7 6 6 5 5 5 6 6 7 6 6 6 5 4 1 2 4 5 5 6 6 7 7 7 8 8 8 9 10 11 11 12 13 14 14 15 15 16 16 16 15 15 14 13
12 12 14 13 12 12 11 11 11 12 12 12 11 12 12 10 11 11 11 10 10 10 10 11 11 10 11 11 11 9 8 6 10 5 1 3 7 8 8 7 7 6 6 6 6 5 4 5 6 7 8 9 7 7 5 6 6 5 6 6 5 5 6 7 7 7 8 8 8 9 10 12 13 13 13 15 15 15 15 16 15 15 15 17 18
13 12 13 13 12 12 10 11 11 12 12 13 13 12 11 11 11 11 10 11 10 9 10 11 11 10 10 10 10 9 8 11 12 8 5 3 4 6 7 7 6 6 6 5 5 5 5 4 3 3 4 4 1 6 8 7 4 7 9 10 9 7 5 4 6 7 8 8 8 9 10 11 12 12 13 14 15 15 15 15 14 15 17 17 16
14 13 13 14 13 11 11 11 11 12 12 12 12 12 12 12 11 11 11 10 9 10 11 11 10 10 10 11 11 10 7 13 12 10 7 7 6 6 7 6 6 6 5 5 4 4 4 4 4 3 3 6 4 2 2 3 9 9 10 12 13 11 11 9 8 4 6 7 8 9 10 11 12 12 13 15 15 16 15 14 14 15 15 16 17
13 13 13 14 14 12 12 11 9 8 7 7 5 4 6 10 10 9 9 9 9 9 10 11 10 10 10 10 10 10 8 13 13 11 9 8 8 9 5 7 6 6 6 5 4 4 3 3 4 4 3 3 4 2 2 2 3 2 2 4 2 7 11 11 8 11 7 6 8 9 10 10 10 11 13 14 15 15 15 15 15 15 17 17 18
12 12 13 13 13 12 12 11 11 11 10 10 9 6 6 8 8 8 8 8 8 9 9 10 9 9 10 9 9 10 7 15 12 11 10 10 9 9 5 6 6 6 6 5 5 4 3 2 2 3 3 3 4 4 4 3 2 2 3 4 3 3 5 7 8 7 6 6 7 8 9 9 9 11 12 12 13 13 14 16 16 15 16 15 12
13 13 13 13 14 13 13 12 11 11 12 11 10 11 11 9 9 7 6 6 6 6 7 8 9 9 10 10 9 10 8 16 12 12 10 10 8 8 6 6 6 6 6 6 5 5 4 4 3 3 3 5 5 1 5 6 4 4 4 4 4 3 4 3 2 4 5 6 7 8 9 10 12 12 12 12 12 14 14 13 12 12 14 14 14
13 13 13 14 15 15 15 15 15 15 13 12 12 12 10 9 8 6 6 6 6 6 7 7 8 9 10 10 9 9 8 11 12 12 11 11 9 9 6 7 6 7 6 6 6 4 4 4 3 3 3 5 5 0 4 8 5 4 4 5 4 5 6 5 2 7 9 9 11 12 13 15 15 16 16 18 13 12 12 13 13 14 14 16 16
12 12 12 13 14 14 14 14 15 14 12 13 12 10 11 9 8 7 7 6 6 6 6 6 7 8 9 10 10 9 9 11 12 11 11 12 11 9 6 7 7 7 7 7 6 5 4 5 4 2 3 5 6 1 4 8 4 4 5 5 6 6 8 8 7 7 6 7 9 10 12 13 14 14 12 9 11 11 12 13 14 14 14 14 15
13 12 12 12 13 13 14 14 13 12 13 13 12 12 9 10 9 7 6 6 6 5 6 6 6 7 8 9 9 9 8 10 11 12 11 13 11 8 6 7 7 7 7 7 6 5 6 6 3 4 4 7 5 2 2 6 5 4 5 5 6 6 7 10 9 10 11 11 10 11 11 11 11 11 11 11 10 11 12 12 12 13 13 13 14
14 13 13 13 13 13 13 14 13 13 12 12 11 11 11 9 8 7 5 5 5 5 5 6 7 7 8 9 8 9 8 10 10 11 11 11 12 8 7 6 7 8 7 7 7 6 6 7 6 4 4 4 3 3 2 3 5 5 5 4 6 6 9 9 9 9 10 10 10 10 10 10 10 10 11 11 11 12 12 12 12 12 12 13 13
14 14 13 13 13 13 10 11 9 8 9 11 9 8 7 9 10 9 7 3 4 2 4 5 6 7 7 8 8 10 7 10 10 12 10 10 11 9 7 7 7 7 7 7 7 6 6 6 7 9 7 5 4 4 3 3 4 5 4 5 5 6 8 9 10 10 9 9 9 8 8 8 9 9 10 11 11 11 12 12 13 12 12 12 13
13 14 13 12 11 10 9 7 9 9 10 10 11 10 8 8 9 11 9 8 9 9 7 5 5 6 6 7 8 9 8 8 10 10 10 10 10 10 8 7 6 7 7 6 6 6 6 5 6 9 9 7 5 4 3 5 5 6 2 3 4 5 6 9 9 8 7 8 8 8 8 9 9 9 10 11 11 12 12 12 13 13 12 11 12
12 12 12 12 11 11 8 10 10 8 10 11 12 11 10 10 10 10 10 9 9 8 7 7 6 7 6 7 7 8 7 7 9 10 10 9 10 10 11 8 9 5 6 6 5 5 4 4 7 10 8 7 6 5 5 5 8 4 2 3 5 7 8 7 7 7 7 7 8 8 9 9 9 9 10 10 11 12 12 12 14 14 13 12 11
13 13 12 12 11 9 8 9 8 8 11 12 12 12 11 10 10 9 10 9 8 8 8 8 9 9 9 8 7 7 7 7 8 9 9 10 9 9 9 6 8 6 4 5 5 4 6 5 6 10 6 5 5 6 6 6 6 5 6 6 8 8 7 6 5 6 7 7 8 8 9 9 9 10 10 10 10 11 12 12 13 14 14 13 13
13 12 13 13 12 9 8 9 9 9 10 11 11 10 11 11 10 9 9 9 9 9 9 10 11 10 9 9 8 7 7 7 8 8 9 10 7 7 5 4 6 4 5 5 4 2 8 10 8 5 4 5 6 6 7 10 12 11 9 9 9 6 4 4 5 6 7 7 8 8 9 9 10 10 10 10 10 10 10 11 11 12 13 14 13
12 13 13 12 13 12 11 11 9 8 10 9 9 9 10 10 9 9 9 9 9 9 9 10 10 9 8 8 8 8 7 7 7 8 8 7 6 6 6 6 5 5 6 6 5 6 6 5 1 2 5 5 6 7 8 3 8 10 11 10 7 4 3 4 5 6 6 7 8 8 8 9 10 10 10 10 9 10 10 11 12 11 12 12 13
12 12 13 13 13 14 16 12 11 9 10 9 8 8 9 9 9 9 9 10 9 9 8 8 7 6 8 8 8 8 8 7 7 8 8 8 8 7 6 5 4 3 5 5 3 3 4 5 3 3 4 2 6 6 7 5 7 9 9 9 6 3 2 2 4 5 5 6 7 7 8 9 9 10 10 10 10 10 9 11 11 11 12 12 12
12 12 14 12 13 14 13 12 14 10 10 10 9 9 9 10 10 11 11 11 10 9 9 10 10 11 10 9 9 9 9 9 8 9 9 9 8 8 9 8 8 8 8 7 7 7 6 6 4 6 6 7 7 8 8 8 7 6 4 3 3 3 4 8 8 6 4 5 6 7 7 8 9 10 10 10 11 10 10 10 11 11 12 12 11
10 10 9 9 9 10 13 11 11 10 11 10 10 10 11 11 11 11 12 10 11 11 11 9 9 9 8 9 10 9 9 10 10 8 9 10 9 9 9 9 8 9 5 1 7 5 5 6 7 7 7 7 8 7 7 6 5 4 4 5 4 3 3 4 4 4 4 5 6 7 7 8 9 9 10 11 11 11 10 10 10 10 11 11 12
11 11 10 10 10 9 9 11 11 9 10 11 10 8 7 10 11 11 11 12 13 11 9 9 9 8 8 8 8 8 9 7 9 12 11 10 7 6 4 7 9 4 6 4 2 4 6 6 7 6 7 7 6 6 5 5 4 4 4 2 4 5 3 4 4 3 4 5 6 6 7 6 8 9 10 10 10 10 10 11 10 10 11 11 12
10 10 10 10 11 11 10 10 13 10 8 9 9 10 9 7 8 6 2 12 12 8 6 4 7 7 8 7 4 12 8 12 15 13 13 13 12 11 7 5 8 8 9 6 2 4 4 4 4 4 5 7 4 4 4 3 3 3 4 5 5 4 2 5 4 3 3 3 3 6 6 6 7 8 9 9 10 10 10 10 10 11 11 11 10
11 11 11 10 10 10 8 9 10 10 11 11 10 10 10 11 6 7 7 10 10 8 8 7 8 10 5 3 1 6 5 8 13 14 14 13 12 10 8 7 7 8 8 6 4 6 5 5 5 5 6 5 5 6 5 5 4 5 4 3 3 3 4 5 2 5 4 4 3 4 4 5 7 7 9 9 9 9 10 10 10 10 10 11 11
12 11 10 10 10 10 9 9 9 12 12 13 11 10 10 10 9 7 4 7 6 10 10 10 10 11 13 11 6 7 8 9 9 10 11 11 11 11 9 7 7 6 6 3 6 5 7 8 8 8 7 6 7 7 7 7 6 6 6 4 3 4 6 5 3 6 4 5 3 4 4 4 5 7 5 6 8 7 7 7 10 10 11 10 11
12 11 11 12 13 11 10 11 11 12 11 11 11 10 10 10 10 9 10 8 4 2 3 5 6 7 9 9 10 11 7 11 11 9 9 10 9 8 8 4 4 6 6 6 7 7 8 9 9 8 8 8 8 7 7 7 7 6 6 5 6 6 6 5 6 5 3 3 4 3 4 5 6 5 5 6 6 7 6 6 8 8 8 9 10
10 9 11 11 10 10 10 11 10 10 11 11 10 9 9 9 9 10 11 11 10 10 9 7 8 10 8 8 11 12 9 8 9 9 9 7 9 11 10 6 3 4 5 8 9 9 9 9 9 8 8 8 8 8 7 7 7 6 6 6 6 6 6 6 5 5 4 5 4 4 4 5 7 5 6 6 6 7 6 6 6 8 9 8 9
10 9 10 11 9 9 9 10 9 9 10 10 8 8 9 9 10 9 9 8 9 8 8 8 9 10 15 11 8 8 8 7 8 9 8 10 12 14 7 5 5 7 8 9 10 10 9 9 8 9 9 9 8 8 8 7 7 6 6 6 4 6 6 4 6 5 3 5 5 5 6 5 6 5 5 6 9 6 6 6 6 6 7 7 8
8 8 9 10 10 9 10 10 9 8 8 6 6 6 6 7 8 8 8 9 10 9 9 9 8 7 8 7 9 10 10 10 10 10 11 12 15 11 7 7 8 9 10 10 10 9 10 10 10 10 9 9 8 8 7 7 6 7 7 7 7 7 6 6 5 4 5 6 6 6 7 6 5 5 5 6 6 6 6 5 5 5 5 6 8
9 8 8 9 9 9 10 12 12 9 8 7 7 7 7 8 8 9 9 10 10 9 9 9 9 9 10 10 12 9 8 7 7 4 5 7 6 6 8 8 9 9 9 9 9 9 10 9 9 9 9 9 9 8 7 7 7 6 6 7 6 5 6 5 5 7 6 6 6 6 5 5 5 5 5 5 6 6 6 5 5 6 6 6 7
8 9 10 11 9 8 9 10 10 9 8 8 9 9 9 8 9 10 10 10 10 10 9 8 9 9 9 8 8 8 8 7 6 6 6 6 8 8 8 8 9 10 10 10 9 9 9 9 9 9 8 8 7 7 7 7 7 7 6 4 4 4 5 6 6 6 6 5 5 5 5 5 5 5 5 6 6 6 6 6 6 5 6 6 6
8 8 9 12 8 8 8 8 9 9 9 9 10 9 9 9 10 10 10 10 10 9 8 9 9 10 9 10 10 10 10 9 9 9 7 7 6 8 8 9 9 10 11 10 9 9 9 9 8 8 8 8 8 8 8 7 7 4 4 4 5 5 6 6 6 6 5 5 5 5 6 6 5 5 5 5 5 5 6 6 6 6 5 5 6
7 8 10 11 9 9 8 8 9 10 9 9 8 9 10 10 9 9 9 9 9 9 10 10 9 9 9 10 13 14 10 10 9 9 8 9 9 9 9 9 10 10 10 10 9 9 8 8 8 8 8 8 8 8 8 8 5 5 5 5 5 6 6 6 6 6 6 6 6 6 6 6 5 5 5 5 6 6 6 6 6 5 5 6 6
7 8 9 10 10 9 8 9 9 9 8 9 9 10 9 9 9 9 9 9 9 8 8 9 8 9 10 16 18 19 11 8 8 8 7 8 8 8 8 9 10 10 10 9 9 8 8 8 8 8 6 6 6 7 5 7 5 4 4 5 5 6 6 6 6 6 6 6 6 6 6 5 5 5 6 7 5 5 5 5 5 5 6 6 6
7 7 8 9 9 9 9 9 9 9 9 10 9 9 8 9 9 8 8 8 8 8 8 8 8 9 9 14 16 18 10 9 9 9 8 8 8 9 9 9 9 9 10 9 9 9 9 8 6 7 6 8 8 5 5 5 5 5 5 5 5 6 6 6 6 6 6 7 7 6 5 5 5 5 4 4 4 5 5 5 5 5 5 6 6
8 8 8 8 9 7 7 8 9 9 9 10 9 9 9 9 8 9 9 9 9 9 9 9 8 8 6 8 9 9 8 8 7 7 8 7 7 7 8 8 9 9 9 9 9 9 8 6 6 7 8 8 8 8 8 6 5 5 5 5 5 6 6 6 7 7 7 7 7 7 5 5 5 5 5 5 5 5 5 5 5 5 5 6 6
7 8 8 9 9 8 8 8 9 9 8 8 8 7 7 8 8 8 8 8 9 9 9 8 6 6 6 7 7 8 8 8 8 7 7 7 7 7 8 7 7 8 8 6 8 8 8 6 5 5 5 7 8 7 8 8 8 7 5 5 6 6 7 6 7 7 7 6 6 6 5 5 5 5 6 5 5 5 5 5 5 6 5 6 6
7 7 8 8 8 8 8 8 8 8 8 9 9 9 9 9 9 8 9 9 8 8 7 6 6 7 7 7 8 8 9 9 9 8 7 7 7 8 7 8 8 9 8 6 7 7 5 5 5 5 5 5 7 7 8 8 8 8 9 8 7 7 9 9 8 6 6 4 4 4 5 5 5 6 7 5 5 5 5 5 5 5 6 6 6
6 6 7 7 8 8 8 7 8 8 8 8 9 10 10 10 8 7 6 6 5 6 6 7 7 7 8 8 7 8 8 9 8 8 9 9 8 8 8 9 7 8 7 9 8 5 5 5 4 4 4 4 6 8 8 8 8 8 8 9 9 9 9 6 6 5 4 4 4 4 5 5 5 6 6 6 6 6 5 6 6 5 6 6 6
6 6 6 7 7 7 7 7 7 7 6 7 7 9 9 8 6 6 6 7 7 6 6 6 6 6 7 7 8 8 8 8 9 9 8 8 8 9 10 9 6 6 5 5 5 4 4 4 4 5 5 4 5 8 9 8 8 8 8 8 9 6 2 1 5 4 3 3 4 4 4 5 5 6 6 5 6 6 6 6 6 6 6 6 6
6 6 6 6 6 6 6 7 7 8 7 7 7 8 7 6 6 6 5 5 6 7 7 7 7 6 6 7 7 8 8 8 8 7 7 7 8 8 8 8 6 5 5 5 4 4 4 4 4 4 5 5 5 8 8 8 8 8 7 8 2 8 5 1 3 6 6 4 4 5 5 6 6 6 6 6 6 6 7 6 6 6 6 6 7
5 6 6 6 7 7 7 7 7 7 7 7 6 7 6 6 6 6 6 6 6 7 7 7 6 7 6 7 7 8 8 8 7 7 6 6 7 7 7 7 6 5 5 5 4 4 4 4 5 5 4 4 4 6 6 7 7 6 7 5 7 5 4 3 5 6 6 5 5 5 5 5 6 6 6 6 6 6 7 7 6 5 6 6 7
5 5 5 6 6 6 6 6 6 5 6 5 5 6 6 6 6 6 5 6 6 6 6 6 6 7 7 7 7 7 8 7 6 6 6 7 7 7 7 5 5 4 5 4 4 4 4 4 4 4 4 4 4 4 6 7 5 5 4 2 3 2 1 3 4 7 8 8 5 4 5 6 5 6 6 5 5 6 6 7 6 6 7 7 7
Wind_Direction
174 169 168 168 166 162 153 150 145 144 143 149 151 152 152 153 153 153 154 156 154 156 155 155 153 154 151 152 147 144 143 144 143 141 134 128 119 118 120 115 109 105 106 104 100 93 87 84 80 74 66 58 55 58 48 40 42 38 28 16 16 5 339 322 315 316 320 328 318 320 322 327 324 331 329 329 327 328 325 327 327 328 327 329 336
173 166 171 169 168 157 152 146 147 147 146 154 153 155 154 155 153 156 158 154 159 158 158 155 157 158 155 152 150 147 150 146 146 143 135 129 126 124 122 115 110 108 105 102 98 92 83 81 80 73 62 62 50 45 36 30 26 29 23 16 5 351 339 321 319 314 316 325 326 322 323 332 323 332 332 331 329 329 328 328 332 329 322 329 332
175 167 168 168 168 156 155 152 151 149 149 152 158 156 153 152 157 160 159 157 161 163 157 158 162 160 157 154 153 153 150 147 146 142 137 138 134 126 119 116 115 117 115 110 105 100 92 85 82 78 66 64 61 51 36 26 20 27 8 5 348 338 327 316 310 316 318 321 326 326 330 330 329 330 332 332 330 329 327 331 332 332 327 324 325
175 173 167 166 158 152 157 151 151 152 153 155 159 156 153 155 160 162 159 160 161 161 159 163 162 162 158 158 157 155 150 149 148 146 144 140 136 129 123 120 118 117 116 114 108 100 95 91 82 74 70 65 52 48 40 20 19 20 5 358 342 345 329 316 312 315 316 317 330 329 330 328 330 329 331 332 332 330 330 328 327 326 325 327 331
174 171 164 151 150 152 153 155 154 156 152 158 159 156 154 157 162 163 159 162 160 160 164 166 165 164 164 164 160 155 153 153 152 150 145 143 135 131 127 120 119 115 111 108 105 101 95 85 80 72 60 61 50 40 32 21 13 13 4 354 345 346 335 326 325 323 319 321 324 326 329 330 329 329 336 334 332 330 331 331 329 326 325 324 326
174 169 161 149 154 154 153 156 158 157 156 159 159 157 156 161 163 163 163 161 161 165 167 168 169 167 169 167 160 155 155 156 157 154 150 143 137 131 127 127 123 122 122 117 110 104 95 86 80 69 60 53 46 35 24 15 11 6 6 349 343 342 335 334 332 328 322 326 326 329 336 336 332 336 340 337 332 331 332 332 328 328 327 330 334
172 164 152 152 155 158 157 161 158 159 160 159 157 158 160 162 165 164 166 164 165 168 169 169 170 172 172 165 161 157 156 161 161 157 154 149 142 138 135 132 128 124 122 117 113 104 97 90 83 72 59 49 44 34 19 12 8 4 4 347 344 342 340 343 338 333 335 332 332 335 334 337 337 336 339 337 333 332 333 331 333 332 330 337 339
164 156 158 158 159 158 159 162 161 160 160 160 160 160 160 164 167 164 165 168 170 172 171 169 172 176 170 167 161 157 159 165 163 162 160 153 148 144 143 142 134 130 125 123 120 112 102 95 83 69 59 50 41 36 23 8 358 5 3 349 345 344 346 345 343 344 342 340 338 341 338 336 340 338 333 337 336 335 337 332 327 330 336 338 339
171 174 169 161 158 157 159 161 162 161 162 161 160 160 162 166 166 166 169 170 173 172 171 172 173 176 168 169 161 160 167 170 167 170 162 159 153 151 150 146 142 139 138 132 131 125 110 96 82 76 77 85 65 47 40 351 348 1 358 350 348 351 351 350 348 349 346 340 343 341 338 341 343 341 340 344 344 336 330 329 322 323 329 330 333
176 168 167 160 154 160 161 160 162 160 162 162 161 160 164 165 167 168 172 172 173 173 172 174 177 175 172 167 164 165 170 179 150 169 174 162 160 154 154 151 153 149 144 139 136 130 126 111 108 119 139 148 141 158 160 150 319 340 347 352 354 358 357 353 353 351 345 344 347 343 342 342 344 342 339 340 333 330 328 329 327 328 324 322 324
175 165 162 156 155 161 159 159 160 162 164 162 161 164 165 165 169 171 172 173 172 172 176 176 181 178 175 170 166 172 176 152 125 154 139 192 166 158 158 157 157 155 154 153 147 146 141 132 135 175 187 180 171 166 166 177 188 215 248 279 318 353 2 354 356 349 348 341 340 343 342 341 341 339 342 338 335 332 329 328 329 332 332 333 334
174 168 160 153 154 156 153 156 162 164 164 164 164 165 164 166 170 172 172 172 172 172 179 181 181 180 176 173 173 176 184 127 154 153 169 204 257 171 162 159 166 162 164 163 152 148 143 139 125 104 56 32 32 160 178 178 217 217 209 210 215 233 284 344 346 350 345 337 339 344 340 344 336 340 342 337 334 328 329 330 334 331 329 332 335
178 170 161 151 156 157 155 162 165 166 170 165 164 162 165 171 172 172 172 172 173 178 183 184 183 180 179 176 180 180 175 142 158 168 171 193 235 257 162 168 171 168 167 170 157 151 144 148 144 136 109 216 235 48 20 151 187 213 240 205 199 199 201 220 245 297 326 324 336 333 344 338 333 342 339 332 327 327 328 331 333 328 330 328 335
177 167 158 155 155 155 153 155 154 137 112 115 117 118 167 178 173 172 170 172 179 181 186 187 183 182 181 179 182 183 175 152 162 172 176 186 210 247 166 171 176 170 172 167 166 158 159 166 152 142 124 105 50 1 19 344 10 18 21 33 52 172 188 193 205 221 251 325 331 327 332 332 332 332 330 329 331 330 329 327 325 327 331 327 326
170 159 153 146 144 143 142 138 130 119 112 103 116 149 189 197 181 175 172 175 181 186 186 188 187 184 185 182 184 187 160 151 166 171 177 180 201 239 178 173 180 178 176 171 180 154 152 153 143 131 131 94 54 2 336 345 352 8 7 9 20 10 31 20 13 2 353 334 326 322 318 325 326 322 319 324 326 323 323 317 320 327 325 318 320
171 162 154 150 147 143 138 134 122 117 122 144 168 175 180 178 177 167 168 172 181 188 188 193 187 186 187 187 187 188 138 157 163 172 174 181 190 216 185 179 188 181 179 176 182 170 171 172 161 141 132 110 106 262 307 315 313 0 2 2 2 3 27 106 218 271 293 315 321 317 315 306 296 292 292 295 302 316 317 316 325 327 323 332 337
159 154 153 155 153 154 153 147 147 151 161 164 165 168 164 162 160 154 158 165 174 186 190 191 188 189 187 191 188 188 149 162 164 171 175 177 192 207 185 191 184 186 185 179 188 165 176 180 165 148 150 106 114 199 297 304 306 354 357 353 359 354 8 8 214 219 239 260 271 275 273 273 273 273 275 276 275 290 314 326 337 333 330 341 345
155 152 152 154 155 157 155 156 158 163 164 167 165 160 150 144 148 150 160 163 175 182 186 188 190 192 192 193 193 190 168 158 168 171 177 181 207 206 191 196 182 185 184 186 188 173 123 47 317 160 141 115 123 163 308 298 323 354 349 346 356 359 1 352 343 337 320 287 275 274 279 280 276 279 274 279 288 297 336 334 333 332 335 341 339
164 159 158 157 156 160 163 162 159 168 172 165 162 158 155 143 140 145 154 165 171 176 186 191 192 196 195 197 187 195 172 153 170 172 183 189 211 217 203 195 185 189 184 184 192 176 154 177 220 342 44 97 117 159 289 310 328 349 337 340 353 357 359 342 337 333 335 333 335 333 326 326 331 336 339 327 317 327 341 334 333 336 335 336 337
168 162 159 160 161 162 168 168 167 168 167 161 158 152 144 134 127 136 133 153 162 172 186 194 194 197 192 197 185 201 177 166 171 177 184 193 222 240 206 206 192 188 194 182 186 184 172 167 159 160 123 130 146 191 216 302 311 333 326 342 350 348 342 326 324 321 315 319 324 324 323 330 333 336 343 343 341 343 341 338 337 337 334 335 336
162 162 161 162 164 162 155 163 155 151 161 157 150 144 153 140 134 121 120 104 122 143 187 213 202 199 191 195 185 197 189 175 163 176 184 193 215 241 229 214 199 190 195 185 192 182 183 186 167 155 174 167 192 181 214 215 281 296 305 343 346 337 312 309 317 297 308 321 325 329 336 334 339 343 345 343 342 344 338 332 336 338 336 336 335
159 159 159 156 147 143 149 151 156 154 156 159 158 160 160 147 138 135 145 163 168 174 184 196 211 201 195 199 195 197 180 182 164 174 186 190 210 225 244 209 214 194 203 191 198 183 189 181 160 151 171 176 192 204 216 225 225 261 21 34 325 304 291 300 295 309 323 330 334 337 339 337 340 344 344 343 343 340 331 330 332 333 334 337 336
152 150 150 150 151 155 151 155 162 157 161 163 163 161 156 154 151 152 159 168 170 166 168 178 185 210 203 199 196 197 182 176 157 171 182 192 200 218 241 281 345 291 209 198 198 183 179 161 115 140 163 179 199 204 229 243 241 239 109 283 267 274 268 278 300 314 331 328 332 339 336 340 339 338 341 340 338 333 329 330 329 329 331 335 331
152 149 150 153 152 158 152 155 150 150 158 165 165 160 159 159 160 165 169 172 175 179 179 185 192 196 194 194 197 196 191 186 158 174 170 189 192 210 230 247 288 244 270 202 196 177 178 187 125 137 165 185 218 224 232 228 267 310 274 262 264 263 268 289 320 337 323 331 337 339 338 341 337 334 336 334 330 326 327 328 327 326 329 332 331
149 151 158 160 160 153 149 155 159 159 161 162 164 162 158 158 165 169 167 172 175 181 184 193 196 192 187 191 192 192 187 187 172 166 162 174 191 190 202 194 252 298 277 203 193 100 69 79 105 161 189 215 237 252 246 237 237 245 250 251 252 266 280 332 335 331 331 338 341 336 335 338 336 332 329 323 318 323 334 331 328 327 331 330 330
149 156 160 160 161 162 163 169 164 157 155 163 164 161 159 164 167 168 172 180 188 193 195 196 197 189 184 185 189 189 184 185 178 163 166 169 184 182 193 184 211 244 291 334 23 78 75 66 64 208 224 229 234 228 239 206 197 219 229 236 254 261 315 329 335 327 333 334 335 332 335 336 334 335 328 327 331 341 340 335 331 334 335 335 333
150 157 164 164 162 170 175 176 179 167 166 169 170 167 170 173 173 171 181 185 187 188 186 188 186 188 191 190 186 185 183 185 182 168 180 181 196 177 188 190 186 245 245 219 190 186 159 202 216 224 295 292 262 302 297 276 240 228 229 220 232 267 276 324 332 328 315 321 328 333 337 333 331 334 339 338 342 342 343 337 334 336 337 337 334
152 162 164 159 167 173 174 169 174 172 173 174 174 174 177 180 181 188 192 190 179 177 186 189 189 195 192 188 183 183 184 189 186 178 178 182 186 185 190 193 194 205 205 205 204 204 192 171 197 221 222 222 223 227 227 227 230 239 251 274 272 262 253 232 230 247 283 330 323 326 328 332 337 338 337 342 344 342 342 340 339 336 339 337 338
149 146 146 150 157 168 183 170 174 170 174 179 186 187 181 181 188 193 198 190 184 187 191 191 191 193 192 188 184 186 192 192 194 179 177 177 179 178 185 193 194 201 199 36 192 192 204 216 219 214 218 222 226 231 225 221 229 237 242 255 269 279 289 333 324 323 335 320 325 324 323 333 331 333 338 341 344 340 345 341 337 338 339 341 341
157 161 161 164 165 166 176 182 182 171 173 178 177 182 189 195 200 197 189 187 188 191 189 184 181 185 191 195 196 199 199 193 139 147 149 160 181 190 188 190 191 201 125 72 328 221 213 220 227 223 225 224 226 231 234 236 242 248 255 232 258 260 298 298 286 316 336 314 308 314 328 324 325 333 335 336 337 336 343 342 337 340 341 343 342
160 163 165 175 174 169 171 176 191 185 178 180 179 181 181 168 54 33 6 173 176 155 165 177 165 170 192 193 115 57 96 121 139 145 155 174 181 192 184 157 144 126 137 129 202 226 235 232 237 241 236 241 238 235 238 242 244 248 257 263 270 278 260 266 283 305 298 299 298 309 317 320 327 330 330 327 328 326 341 344 340 342 342 342 343
164 170 174 176 167 169 167 168 173 177 192 193 187 184 182 182 160 72 80 140 157 164 169 167 170 178 186 22 118 138 88 138 156 165 176 179 187 191 185 176 174 158 180 192 216 218 224 235 240 243 238 238 239 244 245 247 244 244 248 255 263 273 276 266 284 293 291 289 305 311 310 316 318 321 317 316 315 323 338 340 341 345 340 340 341
172 171 172 166 164 173 170 173 181 187 186 192 192 186 184 178 170 161 74 58 133 164 164 173 180 187 188 189 187 219 185 167 164 170 177 183 187 196 193 180 170 170 144 193 218 227 230 235 237 239 240 241 241 239 238 237 239 244 252 257 259 262 265 280 277 268 274 280 293 292 300 306 310 311 308 313 319 325 330 334 339 344 342 340 338
175 172 172 169 168 171 180 180 181 191 191 190 192 188 189 184 181 170 171 170 143 94 131 169 177 202 210 208 203 218 197 164 174 171 173 183 185 164 148 138 125 180 222 227 216 227 235 238 241 241 243 244 243 238 238 241 247 252 255 259 262 266 267 267 264 264 278 283 279 297 300 304 318 310 313 313 315 318 324 331 337 342 342 340 338
181 156 148 163 169 171 178 185 179 181 189 192 188 181 183 185 182 181 182 181 187 189 190 191 202 199 200 212 226 220 203 160 162 175 184 171 145 141 132 131 162 199 237 241 238 231 233 235 241 245 245 246 243 245 244 243 245 245 248 252 259 264 271 273 275 283 280 284 289 293 310 309 301 305 305 307 312 315 320 325 334 339 338 336 334
185 175 165 166 171 173 173 176 168 175 180 184 182 178 184 184 187 188 181 177 181 185 186 197 195 192 202 214 202 206 197 168 161 175 174 159 157 151 166 190 187 202 209 215 223 233 241 245 245 243 245 244 246 242 239 239 241 245 248 252 256 263 268 272 271 271 282 289 291 289 285 285 295 297 302 300 306 311 313 324 330 331 326 329 329
170 168 170 178 181 179 178 184 182 177 173 166 153 157 158 167 178 182 184 187 192 193 194 187 180 163 179 206 196 194 191 178 184 183 170 171 171 179 203 191 204 208 211 214 216 223 230 235 239 244 246 247 244 242 239 238 238 242 244 254 262 266 269 271 284 291 289 283 286 291 289 288 288 289 289 295 298 302 309 316 319 319 319 311 300
174 168 165 167 169 165 172 190 192 170 169 179 182 177 172 184 184 188 192 197 193 194 197 190 180 183 187 201 185 194 187 166 136 133 149 160 175 208 214 220 222 226 221 222 223 227 231 236 236 236 239 240 241 240 239 236 237 242 246 248 255 263 269 278 273 262 255 265 270 271 274 284 293 301 295 289 293 298 303 304 311 314 315 313 320
186 153 144 147 157 167 170 173 175 170 176 179 187 184 182 186 190 198 200 196 190 195 197 186 185 194 189 176 167 159 148 177 189 192 176 190 196 204 213 217 224 230 231 227 226 228 237 239 237 238 239 241 240 239 237 238 240 244 248 253 256 262 254 253 253 250 251 257 269 284 298 305 309 309 307 299 294 293 293 297 293 298 308 313 319
181 165 159 155 166 166 169 166 165 174 177 182 188 186 180 189 193 196 200 201 198 194 193 197 194 197 188 176 170 168 189 195 197 197 186 187 193 201 209 221 227 231 231 231 232 236 237 241 243 242 236 237 239 240 239 240 243 244 247 248 251 250 251 255 260 263 262 268 280 291 297 300 298 299 296 294 293 295 294 292 295 295 293 299 309
185 166 154 171 178 169 173 171 174 185 181 187 187 184 190 189 195 192 195 198 200 200 202 206 206 199 193 182 164 175 193 198 197 197 188 184 191 199 207 217 225 233 234 235 237 240 244 245 245 244 242 239 237 237 240 244 246 246 248 247 247 251 258 258 259 264 267 269 271 279 289 294 295 295 296 298 295 287 281 280 281 289 297 301 301
172 154 160 171 167 179 177 181 183 182 182 184 190 192 190 189 193 193 197 201 202 198 198 201 204 205 188 172 173 184 195 206 197 193 189 184 192 203 209 217 223 231 236 234 234 237 243 246 244 242 238 236 239 245 246 246 243 243 242 242 245 246 247 250 246 248 257 267 272 273 270 276 288 292 284 278 282 281 285 289 294 296 296 297 300
158 154 160 163 175 185 184 180 178 180 188 193 200 197 193 187 194 194 196 198 201 197 201 203 205 210 193 172 180 183 198 206 206 196 197 194 198 206 214 219 224 228 231 234 238 242 243 240 239 237 235 235 236 238 238 242 240 240 239 235 238 240 245 250 255 255 256 258 261 259 256 261 264 263 268 266 265 273 281 285 283 285 288 291 294
168 165 164 165 174 177 181 177 183 187 193 190 187 185 188 192 198 199 201 200 207 203 208 208 207 194 165 153 165 176 202 215 218 209 202 203 202 207 213 220 224 228 229 233 237 237 236 236 234 234 234 237 239 240 243 244 241 237 240 237 232 232 238 245 251 258 265 274 282 285 274 264 264 273 272 266 264 271 272 273 277 282 286 292 297
174 174 168 169 174 177 181 187 188 186 183 177 187 185 181 193 197 201 203 208 206 208 207 205 183 165 158 156 170 183 196 211 221 218 204 197 200 209 219 228 229 230 234 238 238 232 230 229 227 227 231 237 241 243 243 245 244 238 232 230 236 235 232 237 244 254 263 265 268 271 276 276 277 272 273 271 269 260 263 269 269 278 277 275 279
180 177 173 173 173 180 182 186 187 188 184 188 190 193 191 199 204 206 206 211 204 199 198 193 199 196 195 195 191 190 203 209 211 208 208 210 212 218 224 228 232 232 231 230 228 225 221 221 218 218 219 229 238 242 246 247 244 239 237 233 229 232 240 246 247 250 253 255 257 265 269 270 266 268 266 272 276 275 280 280 278 272 271 273 269
178 181 175 178 181 182 186 180 186 191 192 193 198 205 209 206 198 193 194 200 205 206 213 214 206 202 201 202 202 202 206 213 218 209 208 210 212 220 226 230 229 231 233 233 228 222 210 210 217 220 220 228 235 240 246 246 242 236 230 233 235 237 240 246 254 249 242 240 243 254 261 269 270 267 255 245 252 251 247 254 259 259 258 266 272
184 182 179 179 180 181 178 182 178 173 182 182 185 203 208 201 188 186 193 195 207 209 211 211 207 201 199 205 210 219 219 219 218 217 213 212 218 225 230 228 226 227 232 232 225 218 217 211 214 217 223 222 229 241 246 247 247 245 244 237 242 247 30 37 240 252 253 253 247 246 243 250 256 257 261 259 256 264 263 258 255 256 253 253 253
186 182 177 180 183 180 179 180 178 182 192 193 189 193 191 185 189 191 195 199 199 205 209 207 208 207 205 209 214 222 226 225 219 211 211 218 226 233 232 229 227 229 232 229 223 216 217 225 220 220 220 226 226 232 238 246 251 255 250 256 137 104 142 145 272 258 282 274 254 250 250 247 247 250 253 254 253 253 253 255 259 261 264 262 264
190 184 183 178 182 183 182 182 180 186 187 190 180 182 182 189 194 200 203 202 204 206 211 206 204 203 204 206 212 220 221 217 215 215 215 221 226 230 232 230 225 222 222 225 227 224 221 221 218 216 219 226 230 233 238 240 242 244 247 237 115 135 121 177 240 280 276 248 246 243 242 242 243 246 248 244 241 237 244 250 255 263 265 268 264
182 181 177 175 182 185 174 169 163 165 164 170 176 171 173 181 183 185 195 202 202 201 204 201 203 206 213 217 221 220 219 216 211 211 216 224 227 223 218 217 216 217 224 225 226 225 225 221 220 213 213 217 226 231 236 238 238 236 248 56 80 33 322 271 258 233 224 249 256 252 244 244 246 251 254 259 261 259 254 261 266 267 271 272 273